Tracking 25710 objects as of 6-Jul-2022
HD Live streaming from Space Station
objects crossing your sky now

STARLINK-3716

Track STARLINK-3716 now!
10-day predictions
STARLINK-3716 is classified as:


NORAD ID: 52092
Int'l Code: 2022-029E
Perigee: 545.9 km
Apogee: 548.0 km
Inclination: 53.2 °
Period: 95.4 minutes
Semi major axis: 6917 km
RCS: Unknown
Launch date: March 19, 2022
Source: United States (US)
Launch site: AIR FORCE EASTERN TEST RANGE (AFETR)
aabbcc
Your satellite tracking list
Your tracking list is empty




NASA's NSSDC Master Catalog

Two Line Element Set (TLE):
1 52092U 22029E   22186.91667824  .00049346  00000-0  30988-2 0  9991
2 52092  53.2167 357.0641 0001523  60.3893 217.3938 15.08818794  1308
Source of the keplerian elements: AFSPC